SBMOSBJP

Guest
Details From SBMO - Zumbi Dos Palmares
To SBJP - Presidente Castro Pinto
Flight Number -
Tags generated
Created
Modified
Stats Distance 151 nm / 280 km
Max Altitude 15,900 ft / 4,846 m
Waypoints 3
Social Downloads 3
Likes 0
Share VATSIM

Download

Looking for another format? Having issues loading an existing format? Contact us
Advertisement - Login to hide

Notes

Basic altitude profile: - Ascent Rate: 2500ft/min - Ascent Speed: 250kts - Cruise Altitude: 35000ft - Cruise Speed: 420kts - Descent Rate: 1500ft/min - Descent Speed: 250kts Options: - Use NATs: yes - Use PACOTS: yes - Use low airways: yes - Use high airways: yes

Route

SBMO POTRO SBJP

ID Type Via Altitude Latitude Longitude Leg Dist Tot Dist Heading (true) Name
O SBMO APT - 0 ft / 0 m -9.51081˚ -35.79168˚ - 0 nm - Zumbi Dos Palmares
POTRO FIX - 15,900 ft / 4,846 m -8.80833˚ -35.42917˚ 47 nm 47 nm 27° / 27° -
O SBJP APT - 0 ft / 0 m -7.14838˚ -34.95068˚ 103 nm 151 nm 16° / 16° Presidente Castro Pinto

Altitude Profile

SBMO

Details ICAO SBMO (MCZ)
Name Zumbi Dos Palmares
Region Brazil
Timezone America/Maceio (UTC-3.0)
Stats Elevation 387 ft / 118 m (AMSL)
Location -9.510808° -35.791677°
Runways 1
Magnetic Variation 22.612° W

METAR

SBMO 241000Z 25004KT 9999 BKN020 25/24 Q1013

Decode

TAF

TAF SBMO 240200Z 2406/2506 33003KT 9999 SCT020 TN24/2409Z TX30/2416Z BECMG 2409/2411 BKN020 BECMG 2413/2415 15009KT SCT020 BECMG 2423/2501 08004KT BECMG 2502/2504 33003KT RMK PEI

Decode

Departure Runways

ID Width Length Bearing (true) Bearing (mag) Surface Threshold Offset Overrun Length
12 148 ft / 45 m 8,528 ft / 2,599 m 100.73° 123.34° Asphalt 0 ft / 0 m 210 ft / 64 m
30 148 ft / 45 m 8,528 ft / 2,599 m 280.73° 303.34° Asphalt 0 ft / 0 m 210 ft / 64 m

SBJP

Details ICAO SBJP (JPA)
Name Presidente Castro Pinto
Region Brazil
Timezone America/Fortaleza (UTC-3.0)
Stats Elevation 215 ft / 66 m (AMSL)
Location -7.148382° -34.950680°
Runways 1
Magnetic Variation 21.794° W

METAR

SBJP 241000Z 17005KT 9999 FEW025 25/23 Q1013

Decode

TAF

TAF SBJP 240200Z 2406/2506 19005KT 7000 SCT020 TN24/2408Z TX31/2416Z BECMG 2410/2412 10012KT BKN020 BECMG 2415/2417 SCT030 BECMG 2503/2505 19004KT RMK PEI

Decode

Destination Runways

ID Width Length Bearing (true) Bearing (mag) Surface Threshold Offset Overrun Length
16 148 ft / 45 m 8,282 ft / 2,524 m 135.67° 157.46° Asphalt 0 ft / 0 m 0 ft / 0 m
34 148 ft / 45 m 8,282 ft / 2,524 m 315.67° 337.46° Asphalt 0 ft / 0 m 200 ft / 61 m

Popular Alternatives